Ukiah, CA

1:23 PM PDT on April 21, 2018 (GMT -0700)
Ukiah Municipal

Weather History for KUKI - March, 2013

Change the Weather History Date:

Tuesday, March 26, 2013

  Actual Average Record
Temperature  
Mean Temperature 55 °F 52 °F  
Max Temperature 69 °F 64 °F 89 °F (1930)
Min Temperature 40 °F 40 °F 28 °F (1922)
Degree Days  
Heating Degree Days 11 13  
Month to date heating degree days 349  
Since 1 July heating degree days 2582  
Cooling Degree Days 0 0  
Month to date cooling degree days 0  
Year to date cooling degree days 0  
Growing Degree Days 4 (Base 50)    
Moisture  
Dew Point 41 °F    
Average Humidity 65    
Maximum Humidity 92    
Minimum Humidity 37    
Precipitation  
Precipitation 0.00 in 0.16 in 2.72 in (1940)
Month to date precipitation 2.04 4.73  
Year to date precipitation 3.88 18.28  
Since 1 July precipitation 26.58  
Snow  
Snow 0.00 in - - ()
Month to date snowfall 0.0  
Since 1 July snowfall 0.0  
Snow Depth -    
Sea Level Pressure  
Sea Level Pressure 29.96 in    
Wind  
Wind Speed 1 mph (NNW)    
Max Wind Speed 9 mph    
Max Gust Speed 13 mph    
Visibility 10 miles    
Events      
T = Trace of Precipitation, MM = Missing Value Source: NWS Daily Summary

Daily Weather History Graph

Daily Weather History Graph

Search for Another Location

Airport or City:

Astronomy

Mar. 26, 2013 Rise Set
Actual Time 7:06 AM PDT 7:31 PM PDT
Civil Twilight 6:39 AM PDT 7:57 PM PDT
Nautical Twilight 6:07 AM PDT 8:29 PM PDT
Astronomical Twilight 5:35 AM PDT 9:01 PM PDT
Moon 7:13 PM PDT (3/26) 6:25 AM PDT (3/26)
Length of Visible Light 13h 18m
Length of Day
12h 24m
Full, 100% of the Moon is Illuminated
Mar 26
Full
Mar 27
Full
Apr 2
Last Quarter
Apr 10
New
Apr 18
First Quarter

Hourly Weather History & Observations

Time (PDT) Temp. Windchill Dew Point Humidity Pressure Visibility Wind Dir Wind Speed Gust Speed Precip Events Conditions
12:56 AM 43.0 °F - 39.0 °F 86% 30.00 in 10.0 mi Calm Calm - N/A   Clear
1:56 AM 42.1 °F - 37.9 °F 85% 30.00 in 10.0 mi Calm Calm - N/A   Clear
2:56 AM 42.1 °F 40.2 °F 37.0 °F 82% 29.99 in 10.0 mi WNW 3.5 mph - N/A   Clear
3:56 AM 39.9 °F - 37.0 °F 89% 29.98 in 10.0 mi Calm Calm - N/A   Mostly Cloudy
4:30 AM 41.0 °F - 37.4 °F 87% 29.98 in 10.0 mi Calm Calm - N/A   Overcast
4:56 AM 41.0 °F - 37.9 °F 89% 29.98 in 10.0 mi Calm Calm - N/A   Overcast
5:56 AM 42.1 °F - 39.0 °F 89% 29.98 in 10.0 mi Calm Calm - N/A   Overcast
6:21 AM 42.8 °F - 39.2 °F 87% 29.98 in 10.0 mi Calm Calm - N/A   Overcast
6:40 AM 41.0 °F - 37.4 °F 87% 29.99 in 10.0 mi Calm Calm - N/A   Mostly Cloudy
6:56 AM 41.0 °F - 37.9 °F 89% 29.98 in 10.0 mi Calm Calm - N/A   Mostly Cloudy
7:56 AM 42.1 °F - 39.0 °F 89% 29.99 in 10.0 mi Calm Calm - N/A   Clear
8:56 AM 44.1 °F - 39.9 °F 85% 30.00 in 10.0 mi Calm Calm - N/A   Mostly Cloudy
9:56 AM 48.9 °F - 41.0 °F 74% 29.99 in 10.0 mi Calm Calm - N/A   Clear
10:56 AM 54.0 °F - 42.1 °F 64% 29.99 in 10.0 mi Calm Calm - N/A   Overcast
11:56 AM 57.9 °F - 41.0 °F 53% 29.98 in 10.0 mi Calm Calm - N/A   Clear
12:56 PM 64.0 °F - 42.1 °F 45% 29.95 in 10.0 mi Calm Calm - N/A   Partly Cloudy
1:56 PM 69.1 °F - 42.1 °F 38% 29.94 in 10.0 mi Variable 4.6 mph - N/A   Clear
2:56 PM 68.0 °F - 41.0 °F 37% 29.91 in 10.0 mi Calm Calm - N/A   Overcast
3:56 PM 66.9 °F - 42.1 °F 40% 29.91 in 10.0 mi Variable 3.5 mph - N/A   Overcast
4:56 PM 69.1 °F - 46.0 °F 44% 29.90 in 10.0 mi Variable 6.9 mph - N/A   Overcast
5:56 PM 64.9 °F - 44.1 °F 47% 29.90 in 10.0 mi WSW 6.9 mph - N/A   Partly Cloudy
6:56 PM 62.1 °F - 43.0 °F 50% 29.91 in 10.0 mi NNE 5.8 mph - N/A   Scattered Clouds
7:56 PM 57.9 °F - 44.1 °F 60% 29.93 in 10.0 mi NNE 6.9 mph - N/A   Clear
8:56 PM 55.0 °F - 44.1 °F 67% 29.95 in 10.0 mi Variable 3.5 mph - N/A   Clear
9:56 PM 54.0 °F - 44.1 °F 69% 29.96 in 10.0 mi Calm Calm - N/A   Overcast
10:56 PM 53.1 °F - 45.0 °F 74% 29.96 in 10.0 mi Calm Calm - N/A   Overcast
11:56 PM 52.0 °F - 45.0 °F 77% 29.96 in 10.0 mi Calm Calm - N/A   Overcast